| time (UTC) | temp C | wind direction | speed KPH | gust KPH | rain 1hr cm | rain 24hr cm | rain mn cm | humidity % | barometer mb |
| 20260502183050 | 13 | 331 | 0.0 | 3.2 | 0.00 | 0.05 | 0.05 | 74 | 1011.3 |
| 20260502181546 | 13 | 136 | 0.0 | 3.2 | 0.00 | 0.05 | 0.05 | 72 | 1011.6 |
| 20260502180106 | 13 | 212 | 0.0 | 6.4 | 0.00 | 0.05 | 0.05 | 77 | 1011.3 |
| 20260502163036 | 12 | 217 | 0.0 | 4.8 | 0.00 | 0.05 | 0.05 | 83 | 1013.3 |
| 20260502161535 | 11 | 26 | 0.0 | 1.6 | 0.00 | 0.05 | 0.05 | 83 | 1013.2 |
| 20260502151531 | 11 | 269 | 0.0 | 1.6 | 0.05 | 0.05 | 0.05 | 86 | 1013.0 |
| 20260502123017 | 11 | 213 | 0.0 | 1.6 | 0.00 | 0.00 | 0.00 | 84 | 1011.7 |
| 20260502121522 | 11 | 213 | 0.0 | 1.6 | 0.00 | 0.00 | 0.00 | 84 | 1011.9 |
| 20260502114515 | 11 | 226 | 0.0 | 1.6 | 0.00 | 0.00 | 0.00 | 84 | 1012.0 |
| 20260502113018 | 11 | 137 | 0.0 | 1.6 | 0.00 | 0.00 | 0.00 | 84 | 1012.0 |
| 20260502111514 | 11 | 137 | 0.0 | 3.2 | 0.00 | 0.00 | 0.00 | 84 | 1012.0 |
| 20260502110014 | 11 | 215 | 0.0 | 1.6 | 0.00 | 0.00 | 0.00 | 84 | 1012.0 |
| 20260502104512 | 11 | 217 | 0.0 | 1.6 | 0.00 | 0.00 | 0.00 | 85 | 1011.9 |
| 20260502103012 | 11 | 192 | 0.0 | 3.2 | 0.00 | 0.00 | 0.00 | 85 | 1011.8 |
| 20260502101512 | 11 | 209 | 0.0 | 1.6 | 0.00 | 0.00 | 0.00 | 86 | 1011.8 |
| 20260502091508 | 11 | 226 | 0.0 | 1.6 | 0.00 | 0.00 | 0.00 | 86 | 1011.1 |
| 20260502070058 | 11 | 122 | 0.0 | 1.6 | 0.00 | 0.00 | 0.00 | 86 | 1010.9 |
| 20260502064601 | 11 | 122 | 0.0 | 1.6 | 0.00 | 0.00 | 0.00 | 86 | 1010.9 |
| 20260502063104 | 11 | 122 | 0.0 | 1.6 | 0.00 | 0.00 | 0.00 | 85 | 1011.0 |
| 20260502061555 | 11 | 122 | 0.0 | 1.6 | 0.00 | 0.00 | 0.00 | 84 | 1011.0 |
| 20260502060108 | 11 | 131 | 0.0 | 1.6 | 0.00 | 0.00 | 0.00 | 84 | 1011.0 |
| 20260502054552 | 11 | 149 | 0.0 | 3.2 | 0.00 | 0.00 | 0.00 | 84 | 1011.2 |
| 20260502053057 | 11 | 186 | 0.0 | 0.0 | 0.00 | 0.00 | 0.00 | 85 | 1011.7 |
| 20260502051556 | 11 | 142 | 0.0 | 1.6 | 0.00 | 0.00 | 0.00 | 85 | 1011.8 |
| 20260502050056 | 11 | 105 | 0.0 | 1.6 | 0.00 | 0.00 | 0.00 | 86 | 1011.8 |
| 20260502044543 | 11 | 93 | 0.0 | 1.6 | 0.00 | 0.00 | 0.00 | 85 | 1011.9 |
| 20260502043041 | 11 | 93 | 0.0 | 0.0 | 0.00 | 0.00 | 0.00 | 85 | 1012.1 |
| 20260502041541 | 11 | 93 | 0.0 | 1.6 | 0.00 | 0.00 | 0.00 | 85 | 1012.1 |
| 20260502040038 | 11 | 93 | 0.0 | 1.6 | 0.00 | 0.00 | 0.00 | 84 | 1012.1 |
| 20260502034538 | 11 | 93 | 0.0 | 0.0 | 0.00 | 0.00 | 0.00 | 84 | 1012.1 |
| 20260502033039 | 11 | 93 | 0.0 | 1.6 | 0.00 | 0.00 | 0.00 | 83 | 1012.1 |
| 20260502031541 | 11 | 127 | 0.0 | 0.0 | 0.00 | 0.00 | 0.00 | 83 | 1012.2 |
| 20260502030036 | 11 | 287 | 0.0 | 1.6 | 0.00 | 0.00 | 0.00 | 82 | 1012.2 |
| 20260502024537 | 11 | 305 | 0.0 | 1.6 | 0.00 | 0.00 | 0.00 | 82 | 1011.9 |
| 20260502023034 | 11 | 307 | 0.0 | 1.6 | 0.00 | 0.00 | 0.00 | 81 | 1012.1 |
| 20260502021535 | 11 | 277 | 0.0 | 1.6 | 0.00 | 0.00 | 0.00 | 81 | 1012.0 |
| 20260502020034 | 11 | 170 | 0.0 | 1.6 | 0.00 | 0.00 | 0.00 | 80 | 1012.0 |
| 20260502014535 | 11 | 242 | 0.0 | 1.6 | 0.00 | 0.00 | 0.00 | 80 | 1012.2 |
| 20260502013033 | 11 | 43 | 0.0 | 3.2 | 0.00 | 0.00 | 0.00 | 79 | 1012.1 |
| 20260502011554 | 11 | 233 | 0.0 | 1.6 | 0.00 | 0.00 | 0.00 | 78 | 1011.9 |
| 20260502010034 | 12 | 262 | 0.0 | 1.6 | 0.00 | 0.00 | 0.00 | 78 | 1011.8 |
| 20260502004551 | 12 | 321 | 0.0 | 3.2 | 0.00 | 0.00 | 0.00 | 76 | 1011.5 |
| 20260502003030 | 12 | 282 | 0.0 | 3.2 | 0.00 | 0.00 | 0.00 | 74 | 1011.3 |
| 20260502001532 | 12 | 179 | 0.0 | 3.2 | 0.00 | 0.00 | 0.00 | 73 | 1011.3 |
| 20260502000030 | 13 | 221 | 0.0 | 4.8 | 0.00 | 0.00 | 0.00 | 71 | 1011.1 |
| 20260501234537 | 13 | 167 | 0.0 | 4.8 | 0.00 | 0.00 | 0.00 | 69 | 1011.1 |
| 20260501233028 | 14 | 293 | 0.0 | 6.4 | 0.00 | 0.00 | 0.00 | 66 | 1011.1 |
| 20260501231537 | 15 | 325 | 0.0 | 4.8 | 0.00 | 0.00 | 0.00 | 65 | 1010.9 |
| 20260501230024 | 16 | 295 | 0.0 | 6.4 | 0.00 | 0.00 | 0.00 | 60 | 1011.0 |
| 20260501224520 | 17 | 233 | 1.6 | 9.7 | 0.00 | 0.00 | 0.00 | 57 | 1011.1 |
| 20260501223017 | 18 | 334 | 1.6 | 8.0 | 0.00 | 0.00 | 0.00 | 53 | 1011.0 |
| 20260501221515 | 19 | 198 | 1.6 | 6.4 | 0.00 | 0.00 | 0.00 | 49 | 1011.0 |
| 20260501220013 | 19 | 265 | 1.6 | 8.0 | 0.00 | 0.00 | 0.00 | 50 | 1011.1 |
| 20260501214515 | 19 | 47 | 1.6 | 9.7 | 0.00 | 0.00 | 0.00 | 47 | 1011.2 |
| 20260501213018 | 20 | 6 | 1.6 | 9.7 | 0.00 | 0.00 | 0.00 | 50 | 1011.1 |
| 20260501211510 | 20 | 290 | 1.6 | 4.8 | 0.00 | 0.00 | 0.00 | 45 | 1011.2 |
| 20260501210008 | 19 | 72 | 0.0 | 6.4 | 0.00 | 0.00 | 0.00 | 48 | 1011.2 |
| 20260501204508 | 19 | 275 | 0.0 | 6.4 | 0.00 | 0.00 | 0.00 | 47 | 1011.3 |
| 20260501203007 | 19 | 292 | 1.6 | 6.4 | 0.00 | 0.00 | 0.00 | 48 | 1011.4 |
| 20260501201505 | 19 | 359 | 1.6 | 9.7 | 0.00 | 0.00 | 0.00 | 46 | 1011.6 |
| 20260501200004 | 20 | 278 | 0.0 | 4.8 | 0.00 | 0.00 | 0.00 | 49 | 1012.0 |
| 20260501194504 | 20 | 56 | 0.0 | 8.0 | 0.00 | 0.00 | 0.00 | 46 | 1012.3 |
| 20260501193100 | 20 | 278 | 1.6 | 6.4 | 0.00 | 0.00 | 0.00 | 45 | 1012.6 |
| 20260501191600 | 20 | 1 | 0.0 | 4.8 | 0.00 | 0.00 | 0.00 | 43 | 1012.7 |
| 20260501190116 | 20 | 283 | 1.6 | 6.4 | 0.00 | 0.00 | 0.00 | 49 | 1012.9 |
| 20260501184558 | 19 | 217 | 0.0 | 3.2 | 0.00 | 0.00 | 0.00 | 43 | 1013.2 |